Weather History for KHRL - March, 2013

Change the Weather History Date:

Wednesday, March 6, 2013

  Actual Average Record
Temperature  
Mean Temperature 56 °F 67 °F  
Max Temperature 72 °F 78 °F 98 °F (1930)
Min Temperature 40 °F 56 °F 32 °F (1932)
Degree Days  
Heating Degree Days 9 2  
Month to date heating degree days 27 16  
Since 1 July heating degree days 375 584  
Cooling Degree Days 0 4  
Month to date cooling degree days 8 24  
Year to date cooling degree days 202 149  
Growing Degree Days 6 (Base 50)    
Moisture  
Dew Point 39 °F    
Average Humidity 56    
Maximum Humidity 77    
Minimum Humidity 35    
Precipitation  
Precipitation 0.00 in 0.04 in 0.29 in (1993)
Month to date precipitation 0.00 0.23  
Year to date precipitation 2.74 2.70  
Sea Level Pressure  
Sea Level Pressure 30.29 in    
Wind  
Wind Speed 8 mph (NE)    
Max Wind Speed 17 mph    
Max Gust Speed 24 mph    
Visibility 10 miles    
Events      
T = Trace of Precipitation, MM = Missing Value Source: NWS Daily Summary

Daily Weather History Graph

Daily Weather History Graph

Search for Another Location

Airport or City:

Trip Planner

Search our weather history database for the weather conditions in past years. The results will help you decide how hot, cold, wet, or windy it might be!

Date:

Astronomy

Mar. 06, 2013 Rise Set
Actual Time 6:48 AM CST 6:34 PM CST
Civil Twilight 6:25 AM CST 6:58 PM CST
Nautical Twilight 5:59 AM CST 7:24 PM CST
Astronomical Twilight 5:32 AM CST 7:51 PM CST
Moon 2:35 AM CST (3/6) 1:40 PM CST (3/6)
Length of Visible Light 12h 32m
Length of Day
11h 46m
Waning Crescent, 29% of the Moon is Illuminated
Mar 6
Waning Crescent
Mar 11
New
Mar 19
First Quarter
Mar 27
Full
Apr 2
Last Quarter

Hourly Weather History & Observations

Time (CST) Temp. Windchill Dew Point Humidity Pressure Visibility Wind Dir Wind Speed Gust Speed Precip Events Conditions
12:52 AM 51.1 °F - 25.0 °F 36% 30.30 in 10.0 mi North 4.6 mph - N/A   Clear
1:52 AM 46.9 °F - 27.0 °F 46% 30.30 in 10.0 mi North 4.6 mph - N/A   Clear
2:52 AM 44.1 °F 40.1 °F 30.0 °F 58% 30.29 in 10.0 mi NNW 6.9 mph - N/A   Clear
3:52 AM 44.1 °F 40.1 °F 28.0 °F 53% 30.29 in 10.0 mi NNW 6.9 mph - N/A   Clear
4:52 AM 42.1 °F 37.7 °F 28.9 °F 60% 30.31 in 10.0 mi NW 6.9 mph - N/A   Clear
5:52 AM 41.0 °F 36.4 °F 28.9 °F 62% 30.33 in 10.0 mi NNW 6.9 mph - N/A   Clear
6:52 AM 43.0 °F 38.2 °F 30.0 °F 60% 30.34 in 10.0 mi North 8.1 mph - N/A   Clear
7:52 AM 50.0 °F - 30.9 °F 48% 30.36 in 10.0 mi North 11.5 mph - N/A   Clear
8:24 AM 53.6 °F - 33.8 °F 47% 30.36 in 10.0 mi North 11.5 mph - N/A   Clear
8:52 AM 57.9 °F - 35.1 °F 42% 30.36 in 10.0 mi North 12.7 mph - N/A   Clear
9:52 AM 64.0 °F - 41.0 °F 43% 30.37 in 10.0 mi North 13.8 mph - N/A   Clear
10:52 AM 66.9 °F - 43.0 °F 42% 30.36 in 10.0 mi NE 10.4 mph 20.7 mph N/A   Clear
11:22 AM 68.0 °F - 42.8 °F 40% 30.36 in 10.0 mi NE 11.5 mph 20.7 mph N/A   Clear
11:52 AM 70.0 °F - 41.0 °F 35% 30.35 in 10.0 mi NE 9.2 mph - N/A   Clear
12:52 PM 70.0 °F - 42.1 °F 36% 30.32 in 10.0 mi East 10.4 mph - N/A   Clear
1:52 PM 70.0 °F - 43.0 °F 38% 30.29 in 10.0 mi ENE 8.1 mph - N/A   Clear
2:52 PM 70.0 °F - 43.0 °F 38% 30.26 in 10.0 mi East 5.8 mph - N/A   Clear
3:52 PM 71.1 °F - 45.0 °F 39% 30.24 in 10.0 mi ENE 11.5 mph 19.6 mph N/A   Clear
4:52 PM 66.0 °F - 46.0 °F 48% 30.23 in 10.0 mi East 13.8 mph - N/A   Clear
5:52 PM 63.0 °F - 46.0 °F 54% 30.23 in 10.0 mi East 11.5 mph - N/A   Clear
6:52 PM 60.1 °F - 46.9 °F 62% 30.24 in 10.0 mi East 11.5 mph - N/A   Clear
7:52 PM 55.9 °F - 46.0 °F 69% 30.23 in 10.0 mi East 6.9 mph - N/A   Clear
8:52 PM 55.0 °F - 46.0 °F 72% 30.25 in 10.0 mi East 5.8 mph - N/A   Clear
9:52 PM 55.0 °F - 46.0 °F 72% 30.25 in 10.0 mi East 3.5 mph - N/A   Clear
10:52 PM 54.0 °F - 46.9 °F 77% 30.23 in 10.0 mi East 4.6 mph - N/A   Clear
11:52 PM 52.0 °F - 46.0 °F 80% 30.21 in 10.0 mi East 3.5 mph - N/A   Clear